Time,TemperatureF,DewpointF,PressureIn,WindDirection,WindDirectionDegrees,WindSpeedMPH,WindSpeedGustMPH,Humidity,HourlyPrecipIn,Conditions,Clouds,dailyrainin,SoftwareType,DateUTC
2013-07-05 00:13:00,60.6,54.0,29.93,South,190,11.0,16.0,80,0.00,,,0.00,weatherlink.com 1.10,2013-07-05 07:13:00,
2013-07-05 00:28:00,60.4,54.0,29.93,South,184,8.0,15.0,80,0.00,,,0.00,weatherlink.com 1.10,2013-07-05 07:28:00,
2013-07-05 00:43:00,60.4,55.0,29.93,South,185,8.0,13.0,81,0.00,,,0.00,weatherlink.com 1.10,2013-07-05 07:43:00,
2013-07-05 00:58:00,59.7,55.0,29.92,South,187,7.0,11.0,85,0.00,,,0.00,weatherlink.com 1.10,2013-07-05 07:58:00,
2013-07-05 01:13:00,59.2,55.0,29.92,South,182,7.0,10.0,85,0.00,,,0.00,weatherlink.com 1.10,2013-07-05 08:13:00,
2013-07-05 01:28:00,58.9,55.0,29.92,South,190,11.0,12.0,87,0.00,,,0.00,weatherlink.com 1.10,2013-07-05 08:28:00,
2013-07-05 01:44:00,58.6,55.0,29.93,South,187,9.0,14.0,87,0.00,,,0.00,weatherlink.com 1.10,2013-07-05 08:44:00,
2013-07-05 01:59:00,58.2,54.0,29.92,SSW,194,11.0,17.0,87,0.00,,,0.00,weatherlink.com 1.10,2013-07-05 08:59:00,
2013-07-05 02:14:00,57.6,54.0,29.92,South,186,15.0,18.0,89,0.00,,,0.00,weatherlink.com 1.10,2013-07-05 09:14:00,
2013-07-05 02:29:00,57.2,54.0,29.92,South,191,14.0,15.0,89,0.00,,,0.00,weatherlink.com 1.10,2013-07-05 09:29:00,
2013-07-05 02:59:00,57.1,54.0,29.92,South,188,12.0,17.0,90,0.00,,,0.00,weatherlink.com 1.10,2013-07-05 09:59:00,
2013-07-05 03:29:00,56.8,54.0,29.91,South,183,9.0,13.0,90,0.00,,,0.00,weatherlink.com 1.10,2013-07-05 10:29:00,
2013-07-05 03:44:00,56.6,54.0,29.91,South,185,10.0,14.0,90,0.00,,,0.00,weatherlink.com 1.10,2013-07-05 10:44:00,
2013-07-05 04:14:00,56.2,54.0,29.90,SSW,192,9.0,13.0,92,0.00,,,0.00,weatherlink.com 1.10,2013-07-05 11:14:00,
2013-07-05 04:29:00,56.2,54.0,29.91,South,178,8.0,12.0,92,0.00,,,0.00,weatherlink.com 1.10,2013-07-05 11:29:00,
2013-07-05 04:44:00,56.2,54.0,29.91,SSE,167,9.0,12.0,92,0.00,,,0.00,weatherlink.com 1.10,2013-07-05 11:44:00,
2013-07-05 05:29:00,55.9,54.0,29.91,South,173,7.0,11.0,93,0.00,,,0.00,weatherlink.com 1.10,2013-07-05 12:29:00,
2013-07-05 05:44:00,55.8,54.0,29.91,South,173,8.0,12.0,93,0.00,,,0.00,weatherlink.com 1.10,2013-07-05 12:44:00,
2013-07-05 06:14:00,56.0,54.0,29.91,South,175,9.0,14.0,94,0.00,,,0.00,weatherlink.com 1.10,2013-07-05 13:14:00,
2013-07-05 06:44:00,56.4,55.0,29.91,South,171,9.0,14.0,94,0.00,,,0.00,weatherlink.com 1.10,2013-07-05 13:44:00,
2013-07-05 06:59:00,56.4,55.0,29.92,South,180,11.0,16.0,94,0.00,,,0.00,weatherlink.com 1.10,2013-07-05 13:59:00,
2013-07-05 07:14:00,56.5,55.0,29.92,SSW,204,10.0,16.0,94,0.00,,,0.00,weatherlink.com 1.10,2013-07-05 14:14:00,
2013-07-05 07:29:00,56.5,55.0,29.92,SSW,192,10.0,17.0,94,0.00,,,0.00,weatherlink.com 1.10,2013-07-05 14:29:00,
2013-07-05 07:44:00,56.6,55.0,29.92,South,178,13.0,16.0,93,0.00,,,0.00,weatherlink.com 1.10,2013-07-05 14:44:00,
2013-07-05 07:59:00,56.8,55.0,29.93,SSW,192,11.0,16.0,94,0.00,,,0.00,weatherlink.com 1.10,2013-07-05 14:59:00,
2013-07-05 08:14:00,57.0,55.0,29.93,SSW,195,9.0,15.0,94,0.00,,,0.00,weatherlink.com 1.10,2013-07-05 15:14:00,
2013-07-05 08:29:00,57.2,55.0,29.93,South,178,10.0,14.0,93,0.00,,,0.00,weatherlink.com 1.10,2013-07-05 15:29:00,
2013-07-05 08:44:00,57.5,56.0,29.93,South,178,13.0,17.0,93,0.00,,,0.00,weatherlink.com 1.10,2013-07-05 15:44:00,
2013-07-05 08:59:00,57.6,56.0,29.93,South,175,10.0,15.0,93,0.00,,,0.00,weatherlink.com 1.10,2013-07-05 15:59:00,
2013-07-05 09:14:00,57.8,56.0,29.93,SSW,193,11.0,15.0,93,0.00,,,0.00,weatherlink.com 1.10,2013-07-05 16:14:00,
2013-07-05 09:29:00,57.9,56.0,29.93,South,190,13.0,15.0,93,0.00,,,0.00,weatherlink.com 1.10,2013-07-05 16:29:00,
2013-07-05 09:44:00,58.2,56.0,29.92,SSW,192,13.0,15.0,93,0.00,,,0.00,weatherlink.com 1.10,2013-07-05 16:44:00,
2013-07-05 09:59:00,59.0,57.0,29.93,South,186,10.0,15.0,93,0.00,,,0.00,weatherlink.com 1.10,2013-07-05 16:59:00,
2013-07-05 10:14:00,60.3,58.0,29.93,SSW,195,9.0,15.0,93,0.00,,,0.00,weatherlink.com 1.10,2013-07-05 17:14:00,
2013-07-05 10:29:00,60.3,58.0,29.93,South,183,9.0,13.0,91,0.00,,,0.00,weatherlink.com 1.10,2013-07-05 17:29:00,
2013-07-05 10:44:00,60.6,58.0,29.93,South,184,9.0,13.0,90,0.00,,,0.00,weatherlink.com 1.10,2013-07-05 17:44:00,
2013-07-05 10:59:00,62.1,59.0,29.93,SSW,204,7.0,12.0,89,0.00,,,0.00,weatherlink.com 1.10,2013-07-05 17:59:00,
2013-07-05 11:14:00,62.5,59.0,29.92,SSW,196,9.0,13.0,89,0.00,,,0.00,weatherlink.com 1.10,2013-07-05 18:14:00,
2013-07-05 11:29:00,62.9,60.0,29.92,SSW,202,7.0,13.0,89,0.00,,,0.00,weatherlink.com 1.10,2013-07-05 18:29:00,
2013-07-05 11:44:00,62.9,59.0,29.92,South,190,12.0,12.0,88,0.00,,,0.00,weatherlink.com 1.10,2013-07-05 18:44:00,
2013-07-05 11:59:00,63.3,60.0,29.92,South,188,9.0,12.0,88,0.00,,,0.00,weatherlink.com 1.10,2013-07-05 18:59:00,
2013-07-05 12:14:00,63.8,60.0,29.92,SSW,198,9.0,11.0,87,0.00,,,0.00,weatherlink.com 1.10,2013-07-05 19:14:00,
2013-07-05 12:29:00,64.1,60.0,29.91,SSW,198,7.0,14.0,87,0.00,,,0.00,weatherlink.com 1.10,2013-07-05 19:29:00,
2013-07-05 12:44:00,64.5,60.0,29.91,South,187,6.0,13.0,86,0.00,,,0.00,weatherlink.com 1.10,2013-07-05 19:44:00,
2013-07-05 12:59:00,64.9,61.0,29.91,South,182,7.0,11.0,86,0.00,,,0.00,weatherlink.com 1.10,2013-07-05 19:59:00,
2013-07-05 13:14:00,65.0,60.0,29.91,SSW,208,7.0,12.0,85,0.00,,,0.00,weatherlink.com 1.10,2013-07-05 20:14:00,
2013-07-05 13:29:00,65.5,61.0,29.91,South,175,9.0,12.0,86,0.00,,,0.00,weatherlink.com 1.10,2013-07-05 20:29:00,
2013-07-05 13:44:00,65.9,61.0,29.91,South,180,9.0,12.0,85,0.00,,,0.00,weatherlink.com 1.10,2013-07-05 20:44:00,
2013-07-05 13:59:00,65.7,61.0,29.91,SSE,158,9.0,10.0,84,0.00,,,0.00,weatherlink.com 1.10,2013-07-05 20:59:00,
2013-07-05 14:14:00,65.8,61.0,29.91,South,178,9.0,11.0,85,0.00,,,0.00,weatherlink.com 1.10,2013-07-05 21:14:00,
2013-07-05 14:30:00,65.7,60.0,29.91,South,178,8.0,11.0,83,0.00,,,0.00,weatherlink.com 1.10,2013-07-05 21:30:00,
2013-07-05 14:45:00,66.5,61.0,29.90,South,186,9.0,10.0,82,0.00,,,0.00,weatherlink.com 1.10,2013-07-05 21:45:00,
2013-07-05 15:00:00,66.7,61.0,29.90,South,189,4.0,10.0,82,0.00,,,0.00,weatherlink.com 1.10,2013-07-05 22:00:00,
2013-07-05 15:15:00,67.2,61.0,29.90,South,173,7.0,10.0,80,0.00,,,0.00,weatherlink.com 1.10,2013-07-05 22:15:00,
2013-07-05 15:30:00,67.0,60.0,29.89,South,184,7.0,10.0,79,0.00,,,0.00,weatherlink.com 1.10,2013-07-05 22:30:00,
2013-07-05 15:45:00,67.4,60.0,29.89,SSW,198,3.0,8.0,77,0.00,,,0.00,weatherlink.com 1.10,2013-07-05 22:45:00,
2013-07-05 16:00:00,67.5,59.0,29.89,SSE,166,4.0,8.0,75,0.00,,,0.00,weatherlink.com 1.10,2013-07-05 23:00:00,
2013-07-05 16:15:00,67.4,59.0,29.88,South,169,4.0,8.0,74,0.00,,,0.00,weatherlink.com 1.10,2013-07-05 23:15:00,
2013-07-05 16:30:00,67.6,58.0,29.88,South,170,4.0,6.0,72,0.00,,,0.00,weatherlink.com 1.10,2013-07-05 23:30:00,
2013-07-05 16:45:00,67.3,58.0,29.88,SSE,156,3.0,7.0,71,0.00,,,0.00,weatherlink.com 1.10,2013-07-05 23:45:00,
2013-07-05 17:00:00,67.9,58.0,29.88,South,178,5.0,6.0,71,0.00,,,0.00,weatherlink.com 1.10,2013-07-06 00:00:00,
2013-07-05 17:15:00,68.0,58.0,29.87,South,179,4.0,6.0,71,0.00,,,0.00,weatherlink.com 1.10,2013-07-06 00:15:00,
2013-07-05 17:30:00,68.2,58.0,29.87,SSW,198,2.0,5.0,71,0.00,,,0.00,weatherlink.com 1.10,2013-07-06 00:30:00,
2013-07-05 17:45:00,68.2,59.0,29.87,SSW,194,4.0,6.0,72,0.00,,,0.00,weatherlink.com 1.10,2013-07-06 00:45:00,
2013-07-05 18:00:00,68.2,58.0,29.87,SSW,207,3.0,5.0,71,0.00,,,0.00,weatherlink.com 1.10,2013-07-06 01:00:00,
2013-07-05 18:15:00,68.5,59.0,29.87,South,184,1.0,4.0,71,0.00,,,0.00,weatherlink.com 1.10,2013-07-06 01:15:00,
2013-07-05 18:30:00,68.3,59.0,29.86,South,184,1.0,3.0,72,0.00,,,0.00,weatherlink.com 1.10,2013-07-06 01:30:00,
2013-07-05 18:45:00,68.3,60.0,29.86,South,187,2.0,4.0,74,0.00,,,0.00,weatherlink.com 1.10,2013-07-06 01:45:00,
2013-07-05 19:00:00,68.3,60.0,29.86,SSW,204,3.0,4.0,74,0.00,,,0.00,weatherlink.com 1.10,2013-07-06 02:00:00,
2013-07-05 19:15:00,68.4,59.0,29.86,SW,219,1.0,4.0,72,0.00,,,0.00,weatherlink.com 1.10,2013-07-06 02:15:00,
2013-07-05 19:30:00,68.0,59.0,29.86,South,182,3.0,4.0,73,0.00,,,0.00,weatherlink.com 1.10,2013-07-06 02:30:00,
2013-07-05 19:45:00,67.3,59.0,29.85,SSE,157,1.0,3.0,75,0.00,,,0.00,weatherlink.com 1.10,2013-07-06 02:45:00,
2013-07-05 20:00:00,66.8,59.0,29.85,SSE,158,1.0,3.0,75,0.00,,,0.00,weatherlink.com 1.10,2013-07-06 03:00:00,
2013-07-05 20:15:00,66.5,59.0,29.85,SSE,161,4.0,4.0,76,0.00,,,0.00,weatherlink.com 1.10,2013-07-06 03:15:00,
2013-07-05 20:30:00,66.2,59.0,29.85,South,169,4.0,5.0,77,0.00,,,0.00,weatherlink.com 1.10,2013-07-06 03:30:00,
2013-07-05 20:45:00,66.2,59.0,29.85,South,172,6.0,6.0,77,0.00,,,0.00,weatherlink.com 1.10,2013-07-06 03:45:00,
2013-07-05 21:00:00,65.9,59.0,29.85,South,175,4.0,6.0,78,0.00,,,0.00,weatherlink.com 1.10,2013-07-06 04:00:00,
2013-07-05 21:15:00,65.8,58.0,29.86,South,190,3.0,7.0,77,0.00,,,0.00,weatherlink.com 1.10,2013-07-06 04:15:00,
2013-07-05 21:30:00,65.6,58.0,29.86,South,183,0.0,5.0,77,0.00,,,0.00,weatherlink.com 1.10,2013-07-06 04:30:00,
2013-07-05 21:45:00,64.0,57.0,29.86,WNW,300,0.0,2.0,79,0.00,,,0.00,weatherlink.com 1.10,2013-07-06 04:45:00,
2013-07-05 22:00:00,64.5,58.0,29.87,West,274,3.0,4.0,78,0.00,,,0.00,weatherlink.com 1.10,2013-07-06 05:00:00,
2013-07-05 22:15:00,63.9,58.0,29.87,South,174,3.0,7.0,82,0.00,,,0.00,weatherlink.com 1.10,2013-07-06 05:15:00,
2013-07-05 22:30:00,62.9,57.0,29.88,WSW,246,2.0,4.0,82,0.00,,,0.00,weatherlink.com 1.10,2013-07-06 05:30:00,
2013-07-05 22:45:00,62.3,58.0,29.87,SSE,160,3.0,4.0,85,0.00,,,0.00,weatherlink.com 1.10,2013-07-06 05:45:00,
2013-07-05 23:00:00,61.7,58.0,29.87,SSE,165,0.0,4.0,86,0.00,,,0.00,weatherlink.com 1.10,2013-07-06 06:00:00,
2013-07-05 23:15:00,62.7,58.0,29.87,SE,128,4.0,6.0,85,0.00,,,0.00,weatherlink.com 1.10,2013-07-06 06:15:00,
2013-07-05 23:30:00,62.7,57.0,29.87,South,184,5.0,7.0,81,0.00,,,0.00,weatherlink.com 1.10,2013-07-06 06:30:00,
2013-07-05 23:58:00,-999.0,-99.9,29.88,South,190,1.0,1.0,-999,0.00,,,0.00,weatherlink.com 1.10,2013-07-06 06:58:00,